Overview Statistics Trail Chart Weather Telemetry Raw packets
 

This is the latest recevied weather packets stored in our database for station/object EA7OC-10. If no packets are shown the sender has not sent any weather packets the latest 10 day(s).

<< 19 20 21 22 23 24 25 >>
Time Temp. Humidity Pressure Rain* Wind** Luminosity Snow
1788142964 23.89° C 23% 1017.5 hPa - - - -
1788142064 23.89° C 22% 1017.4 hPa - - - -
1788141164 23.89° C 22% 1017.4 hPa - - - -
1788140264 23.89° C 22% 1017.4 hPa - - - -
1788139364 24.44° C 22% 1017.4 hPa - - - -
1788138464 24.44° C 22% 1017.1 hPa - - - -
1788137564 24.44° C 22% 1017.1 hPa - - - -
1788136664 25° C 22% 1017.1 hPa - - - -
1788135764 25° C 22% 1017 hPa - - - -
1788134863 25° C 22% 1016.9 hPa - - - -
1788133963 25.56° C 22% 1016.9 hPa - - - -
1788133079 25.56° C 22% 1016.8 hPa - - - -
1788132163 25.56° C 22% 1016.7 hPa - - - -
1788131263 26.67° C 22% 1016.7 hPa - - - -
1788130363 26.67° C 22% 1016.5 hPa - - - -
1788129463 27.22° C 22% 1016.5 hPa - - - -
1788128563 27.78° C 22% 1016.6 hPa - - - -
1788127662 28.33° C 21% 1016.5 hPa - - - -
1788126762 28.33° C 22% 1016.5 hPa - - - -
1788125862 28.33° C 21% 1016.5 hPa - - - -
1788124962 28.89° C 21% 1016.3 hPa - - - -
1788123177 29.44° C 21% 1016.4 hPa - - - -
1788122277 30° C 21% 1016.2 hPa - - - -
1788121377 30.56° C 21% 1016.1 hPa - - - -
1788120477 30.56° C 21% 1015.9 hPa - - - -

* Rain since midnight (hover to see other rain measurements)
** Current wind speed in m/s (hover to see current wind gust speed)